Theta_e
322 322 321 321 319 318 321 323 323 321 321 316 315 318 318 322 323 322 322 324 325 327 327 329 331 330 329 329 328 328 330 331 332 334 336 336 337 336 336 336 337 334 333 334 332 332 333 334 332 324 320 319 315 313 310 311 313 311 313 318 323 330 330 328 329 330 332 333 334 334 332 331 332 332 332 331 330 329 325 322 320 317 314 313 315 313 312 313 313 313 313 312 312 312 311 311 312
322 321 321 320 318 320 323 323 322 318 317 314 315 319 319 320 321 321 322 323 325 326 327 330 331 329 327 327 327 328 330 333 336 337 336 335 336 336 335 336 336 333 332 332 331 332 334 335 331 322 321 319 315 313 311 310 311 312 315 318 323 329 330 329 330 331 332 333 333 333 332 332 331 331 331 331 329 327 323 318 316 314 313 313 312 313 313 312 311 311 311 312 312 312 312 311 312
321 320 320 320 320 322 323 323 321 316 315 313 314 319 319 320 321 322 324 324 325 326 329 331 331 329 326 327 326 327 331 335 337 336 335 335 336 335 335 336 335 333 331 329 330 334 335 335 331 322 321 319 316 314 312 311 311 314 316 319 322 326 328 328 331 333 333 333 331 330 331 331 330 330 330 329 326 323 318 314 313 315 319 317 313 316 317 315 314 312 311 312 312 312 311 311 311
321 319 320 321 321 322 323 324 322 317 315 313 314 318 319 320 321 323 325 324 324 325 329 329 330 330 327 328 325 327 334 336 337 336 335 336 335 334 336 336 334 333 330 328 330 334 335 334 331 323 321 319 317 315 313 313 312 314 316 320 323 324 326 328 331 332 332 331 329 330 330 329 328 328 328 326 322 318 314 315 315 318 323 321 315 315 318 317 314 312 311 311 312 312 311 311 311
319 318 319 320 322 323 324 323 322 319 316 315 315 317 319 321 321 324 325 323 323 325 327 327 329 330 328 328 327 331 333 334 337 336 336 336 335 334 336 335 334 333 329 328 330 334 335 334 333 324 321 320 318 315 313 313 312 313 314 318 323 324 325 327 330 330 330 328 328 329 327 325 323 323 323 321 318 314 314 317 318 322 324 322 320 317 318 317 312 311 311 311 311 311 311 311 311
319 319 318 319 322 323 323 320 318 319 318 319 318 317 320 320 321 324 325 323 322 323 325 327 328 328 329 329 328 332 334 335 336 336 337 336 334 335 336 334 335 334 329 329 331 334 335 334 334 325 321 320 319 316 313 313 312 312 311 315 321 322 325 328 328 328 328 328 328 327 324 320 318 319 318 317 317 315 316 320 322 325 325 324 324 322 321 316 311 310 310 311 312 311 311 311 310
319 321 321 319 321 322 322 320 318 319 319 319 318 319 319 320 322 323 324 322 321 322 323 326 326 325 329 328 328 330 331 336 336 336 337 333 333 335 335 335 336 333 328 331 333 334 335 335 334 326 321 320 319 317 314 312 312 312 311 314 317 319 325 328 328 328 328 329 328 325 322 318 315 314 314 317 319 318 318 322 325 327 326 325 326 326 323 316 313 314 313 315 315 313 312 312 311
318 322 322 322 323 322 322 321 321 320 318 318 318 319 320 321 322 323 322 321 321 322 322 324 324 324 325 325 333 331 327 334 336 336 335 329 331 334 335 335 336 331 327 331 334 335 335 334 334 326 321 321 319 318 315 312 312 312 312 314 317 321 326 327 327 327 327 327 327 326 321 317 315 310 312 318 319 319 321 322 325 328 326 324 323 322 318 313 314 316 315 316 314 311 311 312 311
318 321 321 322 323 322 320 320 320 319 319 318 318 319 320 321 322 322 321 321 321 320 322 323 323 323 322 324 333 334 329 331 335 335 333 329 330 334 335 336 336 332 328 331 334 336 335 333 334 327 321 321 319 318 315 313 312 312 312 312 317 324 325 324 323 322 324 326 326 326 321 316 316 311 312 319 318 317 322 321 320 324 323 321 320 317 312 309 311 312 311 312 311 311 310 310 310
319 320 321 322 322 320 318 319 319 319 319 319 319 319 319 320 321 322 321 321 319 320 323 323 323 320 321 326 332 336 333 329 334 336 333 331 333 336 336 336 336 334 333 334 335 337 335 333 334 328 322 322 319 318 315 312 313 312 312 312 314 319 318 318 318 316 319 322 321 323 320 315 315 314 314 318 317 315 317 318 316 318 319 316 316 313 310 310 311 311 311 311 311 311 311 311 312
320 320 322 322 320 318 317 317 319 319 319 319 319 319 319 320 321 322 321 320 319 320 322 321 321 320 321 325 333 336 332 329 334 336 334 333 335 336 336 337 336 335 336 335 336 337 336 334 334 329 322 322 320 318 316 313 313 313 312 312 312 313 313 313 314 313 313 315 313 316 317 313 312 314 314 315 316 312 311 314 313 316 319 316 314 312 311 312 312 312 312 312 312 312 312 312 313
322 321 321 321 320 319 318 318 319 319 319 319 319 319 319 320 321 321 320 319 318 319 321 320 321 322 321 324 334 334 328 331 336 336 335 334 335 335 335 336 335 334 335 335 335 336 336 334 334 330 324 322 321 319 318 316 314 314 313 312 312 312 312 312 312 312 311 311 310 311 313 310 309 311 312 313 313 309 308 310 310 315 320 317 314 312 312 313 313 314 314 314 314 313 313 313 314
322 322 321 321 322 321 319 318 319 319 319 319 320 319 318 320 321 320 320 319 319 318 320 321 321 321 321 326 333 332 328 333 336 335 335 334 334 335 334 336 336 334 334 335 335 336 336 335 334 330 325 323 321 320 319 318 316 314 314 313 313 313 313 313 312 312 311 310 309 309 309 308 308 309 310 311 310 308 308 309 309 313 318 316 313 313 313 315 315 316 316 315 315 314 314 314 314
321 323 322 321 322 321 319 319 319 318 318 320 320 319 318 319 320 320 319 318 318 319 320 320 320 321 321 324 329 332 332 332 335 336 335 335 334 334 334 335 336 335 334 334 334 334 335 334 334 331 326 324 322 320 320 319 318 316 315 314 314 314 314 314 313 313 312 310 309 309 308 307 307 307 308 309 308 308 307 307 307 310 313 313 313 314 315 316 317 317 316 316 315 314 314 314 313
321 322 323 323 321 319 319 320 319 317 318 320 319 318 319 318 318 319 319 318 319 318 318 318 319 321 320 322 327 333 333 331 334 336 335 335 335 334 334 334 335 335 333 335 335 334 334 334 333 332 327 326 324 321 321 321 320 318 316 316 315 315 315 315 314 314 313 312 310 309 308 307 307 306 307 307 308 307 306 306 307 309 311 312 314 316 317 318 318 318 317 317 316 315 315 314 313
320 323 322 322 320 318 318 320 319 318 319 319 318 318 318 318 317 318 318 317 318 316 317 318 318 320 321 324 332 336 332 328 332 335 335 335 335 334 334 334 335 335 334 334 336 334 335 334 334 333 330 329 327 323 323 321 321 321 319 318 318 317 316 315 315 315 315 314 312 311 309 308 307 306 306 306 307 306 305 306 308 310 312 314 317 318 319 319 319 318 318 318 318 317 316 315 314
320 323 322 321 320 318 318 319 318 317 319 319 318 318 318 318 316 316 316 316 317 316 318 320 318 319 321 320 330 337 332 326 330 334 335 335 335 335 334 334 335 335 335 334 336 335 334 334 333 335 332 332 330 325 325 324 321 322 321 320 320 319 318 317 317 317 317 316 314 313 312 311 309 308 307 306 306 306 306 307 310 312 314 317 319 319 319 319 320 319 320 319 319 319 318 317 316
320 322 321 320 320 319 319 319 318 318 319 318 318 319 319 318 317 316 316 316 317 317 318 319 317 319 320 317 323 331 329 326 328 333 335 335 334 335 334 334 334 334 335 334 336 335 335 334 333 335 334 333 331 325 327 329 324 322 322 321 321 320 320 319 318 319 319 319 317 315 316 315 313 311 309 307 307 306 307 309 311 314 317 319 320 320 320 320 321 321 321 321 321 321 320 320 318
321 322 322 321 321 319 319 319 318 318 318 318 318 319 319 318 317 316 316 317 317 317 318 318 319 320 319 316 320 325 326 327 328 331 334 335 334 335 334 334 334 334 334 334 335 335 335 335 334 335 334 334 333 326 325 330 325 322 324 323 323 322 321 321 320 320 320 320 319 318 318 317 314 313 311 311 310 310 310 311 313 316 318 320 320 320 320 321 321 321 321 321 322 322 322 322 321
321 322 323 322 320 319 318 318 317 317 318 318 318 318 319 318 317 316 317 318 317 317 319 317 319 322 320 318 319 321 325 328 327 330 334 335 335 335 335 334 334 334 334 334 335 335 335 335 334 334 334 333 333 329 324 328 326 325 328 325 323 324 322 322 321 321 321 321 321 320 320 318 317 316 315 315 314 313 313 313 315 317 318 319 320 320 320 320 321 321 321 321 322 322 322 322 321
320 320 321 320 320 319 317 317 316 315 317 318 318 317 317 317 316 317 317 317 317 317 318 318 317 321 322 319 317 319 323 327 327 330 334 335 335 335 335 335 334 334 334 334 334 335 334 335 335 334 334 333 332 331 327 328 328 327 331 328 324 325 324 323 322 322 322 322 322 322 322 321 320 319 318 317 317 317 316 316 316 317 318 319 319 319 320 320 320 320 321 321 321 321 322 322 322
319 318 319 319 319 319 316 315 314 314 316 318 318 317 317 316 316 317 317 317 316 317 317 318 317 320 323 319 317 319 321 324 325 329 333 336 336 335 336 336 335 334 334 334 334 334 334 334 335 334 334 333 331 331 330 329 328 328 331 330 326 325 325 325 324 324 323 323 323 323 323 323 323 322 320 319 318 318 318 318 318 317 318 318 319 319 319 319 320 320 320 320 321 321 321 322 322
319 318 317 317 318 318 315 314 314 314 316 318 317 317 316 316 317 317 317 317 316 315 315 316 316 320 323 319 316 318 319 321 322 324 330 334 336 336 337 336 335 334 333 334 333 334 334 334 334 334 334 333 330 330 330 330 327 327 329 329 327 326 326 325 325 325 325 324 324 324 324 324 324 323 323 321 320 319 319 319 319 319 319 319 319 319 319 320 320 320 320 320 320 320 321 321 321
319 318 317 316 316 316 314 313 313 313 316 316 316 316 316 317 317 315 316 317 316 315 314 314 314 317 319 317 315 316 317 318 319 321 327 333 335 335 336 336 336 335 333 333 333 333 333 333 333 334 334 333 330 329 330 329 328 328 328 328 328 327 327 326 326 325 326 326 325 325 325 325 325 324 324 324 323 322 320 320 320 320 320 320 320 320 320 320 320 320 320 320 320 320 321 321 321
319 318 317 316 315 314 312 312 313 313 314 314 314 316 316 316 315 315 316 316 316 315 314 314 314 314 315 316 315 315 316 317 321 325 329 332 334 334 335 335 335 335 333 333 333 333 332 331 332 333 333 332 331 330 330 330 328 328 328 328 328 328 328 328 327 327 327 326 326 326 326 326 326 326 325 325 325 324 323 322 321 321 321 321 320 320 320 320 321 320 320 320 320 320 320 321 321
319 318 317 316 315 313 313 313 313 313 314 313 315 317 315 314 314 315 316 316 315 315 314 314 314 314 315 316 316 315 316 316 319 324 327 330 333 334 334 334 335 335 334 334 334 333 332 331 330 331 332 331 331 331 330 329 328 328 329 329 329 328 328 328 328 328 328 327 327 327 327 326 326 326 326 326 326 325 325 325 324 323 322 322 322 322 322 321 321 321 321 321 321 321 321 321 321
318 318 317 316 315 314 314 315 314 314 314 313 316 316 315 314 314 316 316 315 315 314 314 314 314 315 316 316 315 315 316 316 318 323 326 327 329 331 331 330 333 335 334 334 334 334 332 330 327 328 330 330 330 331 330 329 329 328 328 329 329 328 328 329 329 329 329 329 328 328 328 327 327 327 327 327 327 327 326 326 326 325 324 324 323 323 323 323 323 323 322 322 322 322 321 322 322
317 316 316 315 315 315 314 315 314 315 315 313 316 316 315 314 314 316 315 314 314 314 314 314 313 316 320 319 315 314 315 316 318 321 323 323 322 322 323 322 325 330 332 333 332 332 331 328 324 325 328 328 329 330 329 329 329 328 328 329 329 328 328 329 329 329 329 329 329 329 329 329 329 328 329 329 328 328 328 327 327 327 326 326 325 325 325 324 324 324 324 324 324 323 323 322 323
317 316 316 315 316 316 315 316 315 316 315 313 315 315 315 315 315 316 315 314 314 314 315 315 313 315 320 321 316 313 314 315 315 317 318 317 317 316 317 316 317 320 325 328 328 328 328 325 321 323 326 326 327 328 329 328 328 328 327 327 328 328 327 328 329 330 329 329 329 330 330 330 330 330 330 330 329 329 329 329 328 328 328 327 327 326 326 325 326 326 326 326 325 325 324 324 324
317 317 317 315 316 315 315 316 315 315 315 313 314 313 315 317 316 315 314 314 314 314 315 316 316 315 316 316 315 314 314 314 314 314 315 315 316 316 316 316 316 316 317 320 322 321 322 321 319 321 322 323 324 324 326 326 327 328 326 325 327 327 327 327 327 328 329 329 329 329 329 330 330 330 330 330 331 330 330 330 330 329 329 329 329 328 327 327 326 326 326 326 326 326 325 324 324
316 316 317 316 316 315 315 315 315 315 314 313 314 313 315 316 315 314 313 313 314 315 316 315 316 316 315 314 314 314 314 315 315 314 315 315 315 316 316 317 316 316 316 317 317 317 318 318 317 318 319 320 321 321 322 323 324 326 326 324 324 325 326 326 326 327 326 327 327 327 328 329 330 330 330 331 331 331 331 331 331 330 330 329 329 328 327 327 326 326 326 326 326 325 325 324 324
316 315 315 317 316 315 315 315 315 315 314 314 314 313 315 316 314 313 311 313 313 314 316 315 315 316 316 315 314 314 314 315 315 315 315 315 315 315 316 316 316 316 316 317 317 317 318 317 318 318 318 319 319 320 320 321 322 324 326 325 323 324 324 325 326 326 326 325 325 325 326 328 329 329 330 331 331 331 331 331 331 330 330 330 329 328 327 326 326 326 326 326 325 325 324 324 324
316 315 314 316 316 316 315 314 315 316 315 314 314 314 316 317 315 313 312 313 314 314 315 316 315 315 315 316 316 315 315 315 315 315 315 315 315 315 315 315 315 316 316 316 316 317 317 318 318 318 318 318 318 319 319 320 321 322 323 324 323 323 323 324 325 326 326 325 323 321 323 325 327 328 329 329 330 330 330 330 330 330 330 329 328 328 327 326 326 326 326 325 324 324 324 324 324
315 315 315 316 316 315 315 314 315 315 315 315 314 314 315 316 316 314 313 314 315 315 316 316 316 316 316 316 316 316 316 315 314 315 315 315 315 315 315 315 315 316 315 316 316 316 316 317 317 317 317 317 317 318 318 319 320 320 321 322 323 323 322 322 324 326 326 324 322 320 320 320 323 326 328 328 329 330 329 329 328 328 328 328 328 327 327 327 326 326 326 325 324 324 324 324 324
314 314 315 316 315 314 315 315 314 314 314 315 315 315 315 316 316 316 315 314 315 315 316 316 316 316 316 317 316 316 316 315 315 315 315 315 315 315 315 315 315 315 315 315 315 316 316 316 316 316 316 316 316 317 317 318 318 319 319 320 321 322 323 322 322 324 323 323 323 323 323 321 320 323 325 326 326 327 328 328 327 328 328 327 327 326 326 325 325 325 325 323 323 323 323 323 323
316 315 315 316 314 314 315 314 313 314 314 315 315 316 316 316 316 316 316 315 315 316 316 316 317 317 317 317 317 317 316 316 316 316 315 315 315 315 315 315 315 315 315 315 315 315 316 316 316 316 316 316 316 316 317 317 318 318 319 319 318 319 320 320 321 321 320 320 320 322 324 321 321 324 323 321 321 322 324 324 326 328 327 325 325 325 325 324 323 324 324 322 321 321 321 322 322
317 316 315 315 315 313 314 314 312 313 315 315 315 316 316 316 316 317 317 316 316 316 317 317 317 317 317 318 317 317 316 316 316 316 315 315 315 315 315 315 315 315 315 315 315 315 315 316 316 316 316 316 316 316 317 317 318 319 320 320 319 319 320 320 321 322 322 321 321 323 325 323 324 326 323 321 322 322 322 323 324 326 326 325 326 327 328 326 324 324 325 323 322 323 323 324 324
316 316 315 315 315 314 314 314 312 312 314 315 316 315 316 316 316 317 317 317 317 317 317 317 318 318 318 318 318 316 316 316 316 316 316 316 315 315 315 315 315 315 315 315 315 315 315 315 315 316 316 316 316 316 316 317 318 321 323 324 323 322 323 323 323 325 325 324 325 326 326 325 324 323 322 324 325 323 323 325 326 325 324 325 328 330 329 328 326 324 323 323 323 323 324 325 325
316 316 314 314 315 315 313 313 312 312 313 315 316 315 316 316 316 317 318 318 318 317 317 317 317 317 317 317 316 316 316 315 316 316 316 316 316 315 315 315 315 315 315 315 315 315 315 315 315 315 316 315 316 316 316 317 319 322 325 326 326 325 325 325 323 324 325 325 325 325 323 323 323 322 324 325 323 322 323 325 327 327 324 323 326 328 330 329 329 326 324 324 324 323 324 325 325
315 315 313 314 315 314 313 313 313 312 312 313 315 315 315 316 316 317 316 315 315 314 313 313 312 313 314 314 314 314 315 314 314 315 315 315 315 316 315 315 315 315 315 315 315 315 315 315 315 315 315 315 315 315 315 316 318 322 324 324 325 324 324 323 321 322 322 321 321 320 320 322 324 325 326 324 323 326 327 326 328 330 330 327 324 325 327 328 328 327 325 326 327 326 325 323 324
317 317 315 315 316 314 314 315 313 313 312 312 314 313 314 315 316 316 314 312 313 312 312 313 313 312 312 312 313 313 313 313 313 313 314 314 315 315 315 316 315 315 315 315 315 315 315 315 315 315 315 315 315 315 315 315 315 318 320 320 319 319 318 318 317 317 317 317 318 318 319 322 325 327 326 324 326 329 330 329 329 331 332 329 325 325 326 325 326 325 324 326 328 328 325 323 325
315 317 317 315 315 314 315 315 314 314 313 313 314 311 311 315 316 316 314 312 313 314 315 316 315 315 314 315 315 313 313 313 312 312 313 313 313 314 314 315 315 315 315 315 315 315 315 315 315 315 315 315 315 315 315 315 314 315 316 317 317 316 315 315 315 315 316 316 317 318 318 320 323 326 326 326 327 328 328 327 327 328 329 327 325 326 326 326 327 327 327 326 326 326 326 326 327
313 316 316 314 315 316 315 316 315 314 313 313 313 311 311 314 315 315 314 313 314 315 316 317 316 316 316 317 316 314 313 313 313 313 312 312 312 313 313 313 313 314 314 314 315 315 315 315 315 315 315 314 314 314 314 314 315 315 315 315 315 315 315 315 315 315 316 316 317 318 318 319 320 322 323 324 326 327 327 327 327 327 327 326 325 326 325 325 326 326 325 324 322 323 325 326 325
315 316 315 313 315 316 316 317 316 315 315 313 314 315 313 312 314 315 313 313 315 315 316 316 316 316 316 316 315 314 314 314 314 314 313 313 313 313 313 313 313 313 313 313 314 314 314 314 314 314 313 313 313 313 314 314 314 315 315 315 315 315 315 315 316 317 316 316 317 317 318 319 318 319 320 321 322 324 325 326 326 326 327 326 326 326 325 325 325 325 325 324 325 325 326 326 324
315 315 316 316 317 317 317 317 316 316 315 313 315 316 312 312 314 314 313 313 314 315 316 316 316 316 316 316 315 315 315 315 315 315 315 314 314 314 314 314 314 313 313 313 313 313 314 313 313 313 312 313 313 313 314 314 315 315 315 315 315 315 315 315 316 317 316 316 317 317 317 317 317 317 318 318 319 320 322 323 324 324 325 325 325 327 326 325 326 327 326 326 326 326 325 325 323
313 313 316 317 318 318 318 317 316 316 313 313 316 315 312 311 313 314 312 313 315 316 316 316 316 316 315 316 315 315 316 316 316 315 316 315 315 315 315 314 314 314 314 314 314 313 313 313 313 312 313 313 313 314 314 314 315 315 315 315 315 315 315 316 316 316 316 316 316 315 315 316 315 315 315 316 316 317 318 319 319 320 321 322 323 323 324 324 325 325 325 324 324 323 324 324 324
313 315 316 316 316 316 316 315 315 314 313 314 314 313 312 311 312 315 314 312 315 316 315 315 315 315 315 315 315 315 315 316 316 316 316 316 316 315 315 315 315 315 315 315 315 314 314 313 313 313 313 314 314 314 314 315 315 315 315 315 315 316 316 316 316 315 315 315 315 315 315 315 315 315 314 315 315 314 315 315 315 316 317 318 318 319 320 321 322 322 324 324 324 324 324 325 325
316 317 316 315 315 315 314 314 314 313 313 312 310 311 313 311 311 315 313 312 314 316 315 315 315 315 315 315 314 314 315 315 315 316 316 316 316 316 316 316 316 315 316 316 315 315 315 314 315 315 315 315 315 315 315 315 315 315 315 315 315 315 315 315 315 315 315 315 315 315 315 315 315 314 314 314 314 314 314 314 314 314 314 314 314 315 316 317 318 319 321 322 322 321 321 321 321
316 316 314 314 314 315 315 314 314 313 312 309 309 311 313 311 312 314 313 312 314 316 316 316 316 316 315 314 314 314 314 314 315 315 315 316 316 316 316 316 316 316 316 316 316 316 315 316 315 316 315 316 315 315 315 315 315 315 315 315 315 315 315 315 315 314 314 314 314 314 314 314 314 314 314 314 313 313 314 313 314 314 314 313 313 313 313 314 315 315 316 317 318 318 318 320 320
315 316 313 313 314 314 315 314 313 313 311 308 309 312 312 311 313 314 313 313 314 315 315 315 316 315 315 314 314 313 314 314 314 314 315 315 315 315 315 315 315 315 315 315 315 315 315 315 315 315 315 315 315 315 315 315 315 315 314 314 314 314 314 314 314 314 314 314 314 314 314 313 313 313 313 313 313 313 313 313 313 313 313 313 313 313 313 313 313 313 314 314 315 316 317 318 319
315 317 315 313 314 314 314 314 314 314 312 309 309 311 311 311 312 312 312 312 312 311 312 313 314 314 313 313 313 313 313 314 314 314 314 314 314 314 314 315 315 315 315 315 315 315 315 315 315 315 315 314 315 315 314 314 314 314 314 314 314 314 314 314 313 314 313 313 313 313 313 313 313 313 313 313 313 313 313 313 313 313 312 312 312 312 312 312 313 313 313 314 314 314 315 316 317
315 316 316 314 314 314 312 311 312 312 312 311 310 311 313 313 312 310 311 311 310 310 311 312 312 312 312 313 313 313 313 313 314 314 314 314 314 314 314 314 314 314 314 314 314 314 314 314 314 314 314 314 314 314 314 314 314 314 314 314 314 314 314 314 313 313 313 313 313 313 313 313 313 313 313 313 313 313 313 313 313 313 313 313 312 312 312 312 312 312 312 312 313 313 313 313 313
314 314 314 312 313 313 311 310 309 309 311 313 312 312 312 313 312 311 311 311 310 310 312 312 312 312 313 314 314 312 312 312 313 313 314 314 314 314 314 314 314 314 314 314 314 314 314 314 314 314 314 314 313 314 314 313 314 313 314 314 313 313 313 313 313 313 313 313 313 313 313 313 313 313 313 313 313 313 313 313 313 313 313 313 313 312 312 312 312 312 312 312 312 312 312 312 312
313 314 314 311 311 312 311 311 311 310 311 312 312 312 311 311 312 312 311 311 310 310 312 313 313 313 314 314 314 312 312 312 312 313 313 313 313 314 314 314 314 313 313 313 313 313 313 313 313 313 313 314 313 314 313 313 314 313 313 313 313 313 313 313 313 313 313 313 313 313 313 313 313 312 312 312 312 312 312 312 312 312 312 312 312 312 312 312 312 312 312 312 312 312 311 311 311
312 313 313 313 313 312 311 312 312 312 312 311 310 310 310 311 312 312 312 312 311 310 312 313 313 313 314 315 313 312 312 312 312 313 313 313 313 313 313 313 313 313 313 313 313 313 313 313 313 313 313 313 313 313 313 313 313 313 313 313 313 313 313 313 313 313 312 312 312 312 311 311 311 310 310 310 310 310 310 310 310 310 311 311 311 311 311 311 311 311 312 311 311 311 311 311 311
310 311 312 313 314 313 312 312 312 312 312 312 311 310 310 312 314 313 312 313 312 311 312 313 313 314 314 314 313 312 312 312 312 312 313 313 313 313 313 313 313 313 313 313 313 313 313 313 313 313 313 313 313 313 313 313 313 313 313 313 313 312 312 311 311 311 310 310 309 309 309 308 308 308 307 307 307 307 307 307 307 307 307 308 308 309 309 309 310 310 310 310 311 311 311 311 311
311 311 312 312 313 312 312 313 311 311 311 311 312 311 311 312 313 314 314 313 313 312 312 313 314 314 315 314 313 312 312 312 312 313 313 313 313 313 313 313 313 313 313 313 313 313 313 313 313 313 313 313 313 313 313 313 312 312 311 311 311 310 310 309 309 309 308 308 307 307 306 306 305 305 305 304 304 304 304 304 304 304 304 304 304 304 305 305 306 306 306 307 307 308 308 308 308
313 313 313 313 313 312 313 313 312 310 310 311 311 311 312 312 311 312 313 313 314 313 312 314 314 314 314 314 312 312 312 312 312 313 313 313 313 313 313 313 313 313 313 313 313 313 313 313 313 313 313 313 313 312 312 312 311 311 310 309 309 309 308 308 308 307 307 306 306 305 304 304 303 303 303 303 303 302 302 302 302 302 302 301 302 302 302 302 302 302 302 303 303 303 303 303 303
Wind_Speed
6 7 7 7 5 5 3 4 4 2 3 1 3 2 4 4 3 5 6 5 4 6 4 3 4 2 1 5 4 8 12 10 6 3 3 10 15 15 13 14 16 18 17 15 13 11 9 8 8 7 9 9 8 7 7 9 10 8 4 5 10 12 11 10 9 9 8 7 6 4 4 3 3 2 2 2 3 4 5 4 4 5 6 6 7 8 8 9 10 11 12 12 12 12 12 12 11
6 6 6 5 4 5 2 3 4 3 3 3 3 1 7 5 4 5 6 5 5 7 5 4 5 2 3 4 2 3 10 12 9 10 11 15 16 13 13 14 17 18 16 15 14 11 9 7 7 8 9 9 8 7 8 9 8 7 5 6 10 11 11 12 11 10 8 6 4 2 2 2 2 1 2 2 3 5 5 5 5 7 7 7 7 8 9 10 11 11 12 12 12 12 12 12 11
4 4 3 4 2 4 2 4 4 2 3 4 4 4 5 5 5 5 8 9 9 7 6 5 4 2 4 3 1 3 6 9 10 14 14 15 14 14 14 15 17 17 16 15 13 12 10 6 7 7 8 8 8 8 9 9 8 8 7 6 8 10 12 13 12 9 8 5 2 1 2 2 2 1 1 2 4 5 5 6 6 7 8 9 8 9 10 10 10 11 11 11 11 11 12 12 12
4 3 1 3 4 3 3 4 3 3 2 3 4 5 5 5 6 8 11 10 9 6 5 5 4 3 5 4 4 4 7 8 9 12 15 12 12 17 16 15 16 16 17 14 11 12 10 7 6 6 8 9 10 10 10 9 8 8 7 7 8 9 11 13 12 10 7 5 2 3 2 1 1 1 1 2 3 4 5 5 6 8 9 9 9 10 10 10 11 11 12 11 11 11 11 11 12
3 2 2 3 5 2 2 3 2 4 1 2 4 7 5 4 8 9 10 9 7 4 4 5 2 2 3 4 5 3 7 7 8 11 15 11 13 17 16 16 15 14 15 12 12 12 10 8 6 5 8 10 11 11 10 9 8 8 7 7 7 8 10 12 12 9 6 3 2 2 2 1 2 2 2 2 2 3 5 5 7 10 9 9 10 10 11 11 11 11 11 11 10 10 10 10 11
2 2 1 2 4 1 3 3 3 2 4 4 3 7 6 5 8 10 10 8 5 3 3 4 1 1 2 1 3 4 5 7 9 11 12 12 17 17 15 17 14 13 14 13 13 11 9 8 5 5 9 10 11 11 10 9 8 8 7 7 7 7 8 10 11 8 5 3 2 3 3 3 4 4 3 3 4 5 6 7 10 10 9 10 10 10 10 10 11 10 10 10 10 10 9 10 11
2 3 2 2 2 1 5 3 2 2 5 5 4 5 6 7 9 11 10 7 4 3 3 3 0 3 1 4 2 3 6 7 8 11 10 15 21 17 15 16 13 13 14 14 12 10 9 8 6 6 9 10 11 11 10 9 9 9 8 8 7 8 9 9 10 8 6 5 3 4 5 5 6 6 5 6 5 6 8 9 11 10 9 10 10 9 9 9 10 10 10 10 10 10 9 9 10
4 3 2 3 3 3 5 3 0 2 4 3 3 3 5 8 9 9 8 5 4 5 5 4 1 4 2 3 2 3 7 8 9 11 11 19 22 16 16 16 13 13 15 14 10 9 9 7 6 6 9 10 10 10 9 9 10 10 9 9 9 9 9 8 8 8 7 6 4 4 5 6 8 8 8 7 5 6 8 9 10 9 8 8 8 8 8 10 10 10 10 10 11 10 9 9 9
5 3 3 4 3 3 4 2 1 3 4 4 4 4 4 7 8 8 7 5 5 5 5 5 2 3 3 3 4 5 6 10 12 12 14 20 20 16 15 14 15 14 15 14 9 8 8 7 6 6 8 9 9 9 9 9 9 10 9 10 10 9 8 8 8 8 8 7 6 4 4 7 8 8 8 6 5 7 9 9 9 9 8 8 8 9 10 11 11 11 11 11 11 10 9 9 9
6 4 3 3 3 3 4 3 2 3 5 4 5 6 5 8 7 6 7 6 6 5 5 4 3 3 2 2 5 5 7 10 13 12 14 19 17 14 13 13 15 15 14 12 9 9 8 7 6 6 7 8 8 8 9 9 9 9 9 9 9 9 8 7 8 8 7 7 7 5 4 7 8 7 6 4 5 7 8 8 9 9 9 9 9 10 11 11 11 11 10 10 10 9 9 9 9
7 4 3 3 4 4 4 3 4 3 5 4 5 6 6 8 7 6 6 6 6 4 5 5 4 2 2 2 5 3 8 10 13 12 14 16 15 13 13 12 14 15 13 12 10 9 8 7 6 6 6 7 8 8 9 9 8 9 9 9 8 8 8 7 8 8 8 7 8 7 7 8 9 7 6 5 6 8 8 9 10 9 9 9 9 10 10 10 10 9 9 9 9 9 9 8 8
6 5 4 4 5 3 1 2 5 5 5 5 6 7 7 9 7 6 6 6 6 4 6 6 2 2 3 3 6 3 8 11 13 13 14 15 15 14 12 10 14 15 12 11 10 9 9 8 7 6 5 6 8 7 8 8 8 8 8 9 8 8 8 8 8 8 9 9 9 9 8 9 9 8 6 5 6 9 9 9 9 8 8 9 9 9 9 9 9 9 8 9 8 8 8 8 7
6 4 5 4 2 2 0 2 5 5 5 5 6 8 8 9 7 6 7 6 6 4 6 6 2 2 2 5 7 5 10 15 13 13 14 14 14 14 13 11 13 14 13 12 11 10 9 8 7 7 6 5 7 7 7 8 8 8 8 8 8 8 8 8 8 8 9 9 9 9 9 9 9 8 7 7 7 9 9 9 8 8 9 9 9 9 8 8 8 8 8 8 9 8 8 8 7
6 4 5 2 0 2 1 2 5 5 5 6 7 10 9 7 4 4 7 6 5 4 5 6 3 4 2 4 7 8 12 16 14 14 14 13 12 13 13 12 12 14 14 12 11 10 9 9 8 7 7 5 6 6 6 7 7 8 8 8 9 8 8 8 8 8 8 8 9 9 8 8 8 8 7 8 8 9 9 9 9 9 9 9 9 8 8 8 8 8 8 9 9 9 8 7 7
6 3 4 2 2 3 2 1 4 5 5 8 8 11 10 4 2 2 3 2 5 5 4 5 5 3 1 1 6 10 15 17 16 15 15 14 12 12 13 12 12 14 16 14 11 10 9 9 9 8 7 5 5 6 6 7 6 7 8 9 9 9 9 9 8 8 8 8 8 8 8 8 8 7 7 8 9 10 10 10 9 9 9 9 8 7 7 7 8 8 8 9 9 9 8 8 7
7 3 4 3 4 5 4 3 4 4 5 9 9 11 9 4 4 3 1 2 5 6 3 4 7 3 3 4 9 11 15 18 16 15 15 15 13 13 13 11 10 12 15 15 12 11 10 9 9 8 7 6 6 6 6 7 6 6 7 8 8 8 8 8 8 8 8 7 7 8 7 8 7 7 7 8 9 9 9 9 9 9 8 8 7 7 6 7 7 8 8 9 9 9 8 8 8
8 4 5 4 5 5 5 5 3 3 7 10 10 12 9 6 6 4 3 2 3 6 5 4 6 4 1 4 11 12 14 18 18 16 15 14 14 13 13 12 11 11 12 14 13 12 12 11 11 9 9 8 8 8 7 7 6 5 5 6 6 7 7 7 7 7 7 7 6 6 7 7 7 7 8 8 8 9 9 9 8 8 8 7 7 6 6 6 7 7 8 8 8 8 8 8 8
8 4 5 5 5 4 4 5 2 3 8 10 11 13 8 7 8 6 5 5 3 5 6 5 4 5 4 4 10 14 14 19 20 18 16 15 15 14 13 13 13 12 11 13 13 13 12 12 12 10 10 10 9 10 8 6 7 6 5 5 5 5 5 6 6 6 6 6 6 6 6 6 6 6 7 7 7 8 8 8 8 7 7 7 6 5 5 6 6 6 6 6 7 7 7 7 8
7 3 5 4 3 4 4 5 5 3 7 11 11 11 7 6 10 8 6 7 7 6 7 7 6 7 7 4 10 15 15 20 22 19 18 17 17 15 14 13 14 14 12 12 12 13 12 12 13 12 11 11 10 11 10 6 8 7 5 5 4 4 4 4 5 5 5 5 5 5 6 4 4 5 5 6 7 7 6 7 7 6 6 6 6 5 4 4 4 4 4 5 5 6 7 7 7
5 4 5 2 5 6 6 6 6 6 5 11 11 10 6 4 9 8 6 6 7 7 7 9 9 11 11 7 10 14 16 21 23 20 18 18 17 16 16 15 15 15 13 12 12 12 12 12 13 13 11 12 10 11 12 8 7 8 6 6 5 4 4 3 3 4 4 4 4 5 5 3 4 4 4 5 6 6 6 5 5 5 5 4 4 3 2 2 2 3 3 3 4 5 6 5 5
4 4 2 4 5 4 5 6 5 5 4 8 10 9 7 5 7 7 6 5 6 7 7 8 7 12 16 12 10 13 16 21 22 21 19 18 17 16 16 16 16 15 13 12 12 12 13 12 13 14 13 13 11 10 11 9 8 8 6 6 6 6 5 4 3 3 3 3 3 3 4 3 3 3 3 3 4 5 5 4 4 4 3 2 2 1 0 0 1 2 3 3 4 5 4 4 4
5 2 4 5 2 2 5 4 3 4 3 7 10 8 7 6 6 7 8 5 2 3 5 6 3 9 15 14 11 13 17 20 23 22 21 20 19 17 15 15 16 15 14 13 13 12 13 13 13 14 14 13 13 11 10 10 11 10 7 7 8 8 7 6 5 5 4 4 3 3 3 2 2 2 3 2 2 3 3 3 3 2 2 2 2 2 2 2 3 3 4 4 4 4 4 4 4
5 3 3 4 3 3 4 3 4 5 4 7 8 6 6 7 6 6 9 6 3 5 4 5 6 9 11 11 11 13 16 19 22 23 22 21 21 19 17 15 16 17 15 13 13 13 13 14 13 14 14 14 15 15 12 12 13 12 10 9 9 10 9 8 7 7 6 5 5 4 3 3 3 2 2 2 2 2 2 2 2 2 3 3 4 4 4 4 5 5 5 5 5 6 6 6 6
5 5 6 5 4 3 4 3 6 6 4 5 5 5 5 7 5 4 9 6 1 2 4 5 7 10 11 9 10 11 13 16 18 20 21 21 21 20 18 16 15 16 16 13 12 13 14 15 14 14 14 15 16 16 15 14 14 13 13 12 12 11 11 10 9 9 9 7 7 6 6 5 4 4 3 3 3 4 4 4 4 4 5 5 5 6 6 6 7 7 7 7 8 8 8 8 8
6 6 9 5 5 4 4 4 6 6 3 4 5 5 4 3 2 2 7 6 6 9 6 5 5 7 11 11 10 10 12 15 17 19 20 20 20 19 19 17 16 16 15 13 13 14 15 16 16 15 15 15 15 16 16 15 15 14 14 14 14 13 13 12 11 11 11 10 10 9 8 7 6 6 6 5 5 6 6 6 7 7 7 7 7 8 8 8 8 9 9 9 10 10 10 10 10
5 9 10 8 6 6 5 5 6 5 4 5 6 5 3 2 4 5 7 8 9 10 9 10 7 5 7 9 11 12 12 14 16 18 19 20 19 19 19 18 17 16 15 14 13 13 15 17 18 17 16 16 16 15 16 16 16 16 14 14 14 15 14 13 13 13 12 12 12 11 10 9 9 9 8 8 8 8 8 8 9 9 9 9 9 9 10 10 10 10 11 11 11 11 12 12 11
11 13 11 10 8 6 4 5 6 5 6 5 4 4 3 2 3 3 7 11 11 9 10 11 12 10 9 9 11 12 13 14 15 17 18 20 21 21 22 20 19 18 16 15 14 13 14 17 19 20 18 18 17 16 17 17 17 17 16 14 14 15 15 15 15 14 14 13 13 12 12 11 11 11 11 11 11 10 11 11 11 11 11 12 11 12 12 11 12 12 12 12 12 12 13 13 12
16 16 12 9 8 7 4 6 6 4 5 4 2 3 4 4 3 3 7 8 7 7 8 10 12 11 9 10 12 12 14 15 16 17 19 21 21 21 22 21 20 19 19 18 15 14 14 17 19 20 20 20 19 18 17 18 17 17 18 16 16 16 16 16 16 16 16 14 14 13 13 13 13 13 14 13 13 13 13 13 13 13 13 13 13 14 14 13 14 14 14 13 14 14 14 15 13
15 14 9 8 7 6 4 5 5 3 3 5 2 3 6 8 7 5 7 7 6 6 4 6 11 12 11 11 13 14 13 16 17 18 18 19 18 18 19 19 19 19 20 19 17 16 16 17 19 20 20 20 20 20 19 18 18 17 18 18 18 18 18 17 17 18 18 17 16 16 15 14 15 15 16 16 15 15 16 15 15 15 15 15 15 15 15 15 16 16 16 15 16 16 15 16 16
11 10 6 7 6 6 6 5 4 3 4 7 4 3 5 10 9 7 8 8 7 6 5 5 7 11 13 13 14 14 14 15 17 16 16 16 17 18 18 17 17 18 19 20 19 18 17 18 19 20 20 21 21 20 20 20 19 18 19 19 19 19 19 18 18 19 19 19 18 18 16 16 17 17 17 17 17 17 18 18 17 17 17 17 17 16 16 17 17 17 17 17 17 17 17 19 20
8 6 4 6 6 6 7 5 5 5 5 6 4 4 2 7 9 6 7 8 7 6 6 7 6 8 11 13 14 15 14 14 14 15 16 16 17 18 17 16 16 17 18 18 18 17 17 18 18 19 20 20 21 20 20 21 20 20 19 19 19 20 20 19 19 19 20 20 19 20 18 17 18 18 19 19 19 19 19 20 19 19 19 19 18 18 18 19 19 19 20 19 19 19 19 20 21
6 5 5 7 5 5 7 5 4 3 5 7 5 5 4 6 9 4 6 7 7 7 6 7 7 7 8 11 13 15 15 14 12 14 16 17 18 18 17 17 17 17 17 17 17 17 18 18 17 18 18 19 20 20 20 20 21 21 20 20 20 20 20 20 20 20 20 21 21 21 19 19 20 20 20 21 21 21 21 21 21 21 21 20 20 21 21 20 21 21 21 21 21 21 21 20 21
5 5 5 7 8 6 6 4 2 1 3 8 7 5 4 5 7 5 6 6 6 6 7 7 8 8 8 9 11 13 15 15 15 15 16 17 18 18 18 17 17 17 17 17 17 18 18 18 18 17 18 18 18 19 19 20 20 21 20 20 21 20 21 20 20 20 21 22 23 21 20 20 21 21 22 23 24 24 23 23 23 23 23 21 21 23 23 22 22 23 22 22 22 22 23 23 23
6 5 3 4 7 6 5 4 4 4 3 7 9 7 8 2 7 7 8 7 5 4 6 7 8 8 8 9 10 11 12 15 17 17 17 17 17 18 18 18 18 18 18 19 18 18 18 19 19 18 18 18 18 18 18 19 19 20 20 20 21 20 21 21 19 19 20 22 23 22 21 20 20 21 23 25 26 26 26 25 25 26 25 23 23 24 24 24 23 23 23 23 22 22 24 24 25
9 8 4 3 4 4 4 4 5 7 6 7 9 9 12 8 5 8 10 9 5 5 6 7 8 8 8 9 10 10 11 14 15 16 18 19 19 19 20 20 19 19 19 20 20 20 19 20 20 20 19 19 19 19 18 18 19 19 20 20 21 21 21 21 20 20 21 22 22 22 21 21 20 20 21 24 26 27 27 26 25 25 25 25 25 24 25 25 24 24 24 23 23 23 23 23 26
13 12 9 6 6 4 2 5 3 3 5 8 10 9 11 11 8 8 10 11 7 8 8 8 9 9 10 11 11 11 13 13 14 17 19 20 22 22 22 22 21 21 21 21 21 21 21 22 21 21 21 20 20 20 19 19 19 19 19 19 20 21 21 21 21 20 20 21 22 22 22 22 21 20 21 21 21 22 23 22 21 21 22 21 21 21 21 22 22 23 23 21 21 23 22 21 23
13 12 9 7 8 5 4 6 3 1 3 7 10 10 10 10 8 9 9 9 8 10 11 11 11 12 12 11 12 14 16 16 17 19 18 18 21 23 24 23 23 22 23 23 23 23 22 22 22 22 22 22 22 22 21 19 19 18 17 17 17 17 18 18 19 19 19 20 19 18 18 19 19 21 22 19 16 16 16 17 18 20 20 18 19 20 19 20 20 22 24 23 22 23 23 23 23
10 9 8 8 7 4 5 4 3 1 2 4 5 8 11 11 9 10 10 9 9 11 12 12 11 11 11 10 13 17 17 18 20 20 18 18 20 22 23 24 24 23 23 24 24 23 23 23 23 23 23 23 23 23 21 20 19 16 14 13 13 13 14 15 15 15 17 17 16 15 16 17 19 21 21 19 18 17 16 17 20 22 21 20 22 23 22 22 21 21 23 25 25 24 24 25 25
7 6 7 6 5 5 5 3 4 2 2 1 1 5 10 10 10 10 9 9 9 8 9 10 10 10 9 9 12 17 19 20 21 20 20 21 21 21 22 23 23 24 24 24 24 24 24 24 24 24 24 24 23 23 22 21 18 15 12 11 11 12 12 13 14 13 14 15 15 16 17 18 19 18 19 21 20 18 17 18 20 22 22 21 22 24 25 26 24 22 23 25 25 25 24 25 28
5 6 7 5 6 5 2 4 5 2 1 2 3 5 8 8 10 8 4 4 5 6 8 11 12 13 13 12 14 18 20 20 20 20 22 23 23 23 23 23 23 24 25 25 25 25 25 24 24 24 24 24 24 23 23 22 19 16 15 14 14 14 12 13 14 14 14 15 16 17 17 16 17 17 18 20 20 20 20 21 22 23 24 23 23 23 26 29 28 26 25 26 28 29 27 26 28
3 4 5 4 7 4 2 6 6 2 2 2 4 6 7 7 10 7 4 4 4 4 6 7 7 10 12 13 15 18 19 20 20 20 21 23 24 25 26 26 26 25 25 26 26 25 25 25 24 24 24 24 24 23 23 22 21 19 18 17 17 17 15 15 16 16 16 16 15 16 16 15 15 15 17 18 20 23 25 24 23 24 26 27 26 26 26 28 28 28 28 30 32 32 29 27 29
4 4 2 3 7 7 7 9 7 2 4 3 1 5 4 4 9 7 5 5 5 4 4 4 3 4 5 6 9 13 15 16 17 18 19 21 22 25 26 28 28 28 28 27 26 26 25 25 25 25 25 24 24 24 23 22 22 21 20 19 19 18 17 16 16 16 15 15 15 15 15 15 15 15 16 16 17 21 23 23 23 24 26 28 28 29 29 29 30 31 31 32 31 29 29 31 35
5 3 2 4 6 8 9 9 6 2 2 2 1 5 3 2 6 6 5 5 5 5 5 4 3 2 2 3 6 9 10 11 12 13 14 15 17 20 22 24 26 28 28 27 27 26 27 27 27 27 26 26 25 24 23 22 21 20 19 19 18 17 16 15 15 14 14 15 15 15 15 15 16 17 17 17 17 19 20 21 21 22 24 26 27 28 30 30 30 31 31 30 28 27 30 34 35
2 1 1 5 7 9 10 8 5 1 2 2 2 2 4 4 3 5 6 5 5 6 5 4 3 2 2 1 3 7 9 10 10 9 10 11 13 14 16 17 19 21 22 23 24 25 27 28 28 27 26 25 24 22 21 19 18 18 17 16 15 15 15 14 13 14 15 15 15 16 16 16 17 18 18 19 19 20 21 21 22 22 24 26 26 28 30 30 28 28 28 28 29 30 32 33 33
1 1 0 4 6 8 9 6 3 1 0 4 4 3 3 6 2 5 5 6 7 8 7 5 3 2 2 1 1 5 8 9 10 10 10 10 9 10 10 11 11 12 13 14 16 19 21 22 23 22 21 20 18 17 16 14 14 14 14 14 14 14 14 13 14 14 15 16 16 16 17 18 19 19 19 20 20 21 22 23 24 24 25 25 26 28 30 30 30 30 30 31 32 33 33 33 33
4 4 4 6 5 6 5 3 3 2 3 4 4 3 4 5 4 5 5 6 8 8 6 4 4 3 2 2 3 4 7 9 10 10 10 9 9 9 9 9 9 9 9 10 10 11 12 14 15 15 15 15 14 13 13 13 13 14 14 13 13 13 13 13 14 14 14 14 15 16 16 17 18 19 19 20 21 21 22 24 25 25 25 25 26 27 27 28 30 31 32 32 32 32 33 33 34
9 7 8 8 5 4 2 1 2 3 5 2 3 1 2 4 5 5 4 2 4 7 7 5 5 5 4 4 4 5 8 10 11 11 11 11 11 11 11 11 10 10 10 9 9 9 9 10 11 12 12 12 12 12 12 12 12 11 11 10 10 10 10 10 10 10 11 11 12 13 14 15 16 17 18 18 19 20 21 23 24 25 26 27 28 27 27 27 28 29 30 31 31 32 33 34 34
7 6 8 7 4 3 3 2 2 5 4 1 2 2 2 5 4 2 3 2 1 4 7 8 8 8 6 5 6 8 10 12 13 14 14 14 14 14 13 13 13 13 12 12 11 11 11 11 11 11 11 10 10 10 9 8 7 7 6 6 5 5 5 5 5 5 6 7 8 9 10 11 12 13 14 15 17 18 19 20 22 24 25 27 28 28 28 28 28 29 29 30 31 33 34 34 35
3 6 8 6 5 4 4 4 4 5 2 2 1 1 3 6 7 3 2 3 2 3 6 10 11 11 9 7 9 13 14 15 16 17 18 18 18 18 17 17 16 16 15 15 14 13 13 13 12 11 11 10 9 8 7 6 5 5 4 4 3 2 1 1 0 1 3 4 5 6 8 9 10 11 11 12 14 15 16 18 19 21 23 24 26 27 28 28 29 29 30 30 31 32 33 33 36
7 8 8 6 6 5 6 6 4 3 1 1 0 0 3 5 6 5 3 8 7 7 8 10 11 12 9 9 11 15 16 17 18 20 20 21 21 21 20 19 19 18 17 16 15 15 14 14 13 12 12 12 11 10 10 9 9 8 7 6 5 4 2 2 1 2 3 4 5 6 7 7 8 9 10 11 12 13 14 15 17 19 20 21 23 25 26 27 28 29 29 30 30 31 30 31 33
5 3 3 5 5 4 5 5 4 3 3 2 1 2 3 3 0 3 3 10 11 9 9 9 10 10 11 12 13 14 16 18 20 21 21 22 21 20 20 19 18 18 17 17 16 16 16 16 15 14 14 14 13 12 11 10 9 7 6 4 3 2 0 1 2 3 3 4 5 6 7 7 8 9 10 11 11 12 13 14 15 16 17 19 20 22 23 25 26 28 29 29 30 30 30 30 31
3 1 1 3 2 1 1 0 1 2 2 2 4 3 4 2 3 5 5 9 10 8 9 9 9 10 12 12 11 12 16 19 20 21 22 22 21 20 20 19 19 19 19 19 18 18 17 16 15 14 13 12 11 10 9 7 6 5 4 3 2 1 1 2 2 3 3 4 5 6 6 7 8 8 9 10 11 12 12 13 13 13 15 16 16 18 19 21 23 25 26 27 28 29 31 32 33
2 1 3 2 2 3 3 1 2 1 3 3 4 4 3 2 4 7 9 8 8 8 9 10 10 11 11 10 9 13 18 19 21 23 23 23 22 22 21 21 21 20 19 18 17 16 15 14 13 12 11 10 9 8 7 6 5 4 4 3 2 1 1 1 1 2 3 3 4 5 6 7 7 8 9 10 11 12 12 13 13 14 14 14 15 16 17 18 19 21 22 23 25 26 28 30 31
2 3 4 3 1 2 1 2 2 2 5 2 4 5 4 4 4 6 10 10 9 9 10 12 12 11 11 10 10 15 19 21 23 24 25 25 24 23 22 21 20 19 18 16 15 14 12 12 11 10 10 9 8 8 7 6 5 4 3 3 2 1 1 2 2 3 3 4 5 6 7 8 9 9 10 11 12 13 14 14 15 15 15 16 16 17 17 18 19 20 21 21 22 24 26 27 28
1 1 2 2 1 3 3 3 2 4 5 3 4 5 4 5 4 7 12 13 12 12 12 12 13 13 13 11 12 17 20 22 24 25 25 25 24 23 21 20 18 17 16 15 14 13 12 11 10 9 8 8 7 7 6 5 5 4 3 3 2 2 2 2 2 3 4 5 6 7 8 9 10 11 11 12 13 14 14 15 16 16 16 17 18 18 19 20 20 21 22 23 23 24 26 27 27
1 0 1 0 1 2 3 4 3 3 5 5 4 3 3 6 6 9 14 16 15 15 14 13 15 17 15 13 15 20 22 23 25 25 25 24 23 22 20 19 18 16 16 14 13 12 11 10 9 8 7 7 6 6 5 5 5 4 4 3 3 3 2 2 3 4 5 6 7 8 9 10 11 11 12 13 13 14 15 15 16 16 17 17 18 18 19 20 21 22 22 23 24 25 26 28 28
4 5 5 4 2 0 1 3 2 2 4 5 5 4 3 3 5 9 14 16 16 16 14 14 18 19 16 16 20 24 24 25 26 25 25 23 22 21 20 19 18 16 15 14 13 12 11 10 9 8 7 6 6 6 5 5 5 5 4 4 3 3 2 3 4 5 6 7 7 9 9 10 11 12 13 14 14 15 16 16 17 17 18 18 19 19 20 21 21 22 23 24 25 26 27 28 29
3 5 7 7 5 3 3 5 2 0 3 3 2 4 2 2 0 2 5 8 12 18 17 16 19 20 17 18 24 26 26 27 26 26 25 24 23 21 20 19 17 16 15 13 13 12 11 10 9 9 8 7 7 7 6 6 5 5 4 3 3 2 3 3 4 5 5 6 7 8 9 10 11 12 13 14 15 16 16 17 18 18 19 19 20 20 21 22 23 24 24 25 26 27 28 29 30
Wind_Direction
333 320 309 309 326 311 287 284 261 185 258 158 108 154 113 75 88 130 134 131 131 108 67 83 104 74 339 335 15 51 40 28 15 25 96 120 136 151 146 148 154 157 158 153 153 140 128 121 107 82 65 56 55 71 80 83 90 94 94 96 109 111 104 108 124 128 122 119 121 113 99 105 129 112 68 70 61 44 28 19 16 28 47 71 84 86 81 73 69 68 68 69 71 75 81 85 87
337 319 309 310 320 298 285 279 273 164 218 141 118 78 102 117 161 154 136 114 81 102 111 116 132 108 343 319 307 56 56 48 54 76 105 125 132 152 148 147 155 160 161 155 154 143 137 128 107 87 71 65 62 73 86 93 97 99 88 93 117 123 120 119 123 126 119 111 122 117 99 120 130 108 65 62 55 43 34 29 27 38 56 71 76 76 75 71 67 67 69 70 72 74 77 82 85
333 315 308 306 287 288 274 242 263 198 199 134 118 91 118 153 154 111 91 82 81 110 129 120 153 167 304 265 326 23 72 69 80 98 115 129 139 152 148 149 155 161 163 157 155 149 146 136 112 91 80 73 68 72 81 93 95 93 87 91 113 122 127 128 125 119 110 103 121 121 110 146 169 157 67 42 39 30 30 36 41 54 68 74 77 81 82 80 76 72 71 72 73 76 77 79 81
319 292 241 290 260 244 245 237 268 250 194 121 124 119 155 162 123 91 81 82 91 122 142 155 174 197 291 339 15 44 95 92 97 113 121 136 161 154 149 152 153 161 165 162 161 154 149 142 126 95 81 72 64 67 75 86 91 93 92 94 105 114 126 137 131 115 112 113 103 93 100 128 157 167 97 40 39 37 44 53 64 77 79 75 80 83 83 80 73 68 67 68 70 73 75 76 78
310 265 180 268 264 239 270 262 270 258 42 79 121 130 162 144 114 100 96 94 98 123 152 189 161 156 256 348 348 30 92 107 115 120 124 149 171 152 151 155 152 164 167 166 166 156 147 144 136 99 79 69 62 65 73 79 89 94 93 103 109 111 124 140 137 125 124 127 99 75 81 104 108 132 120 76 66 69 72 72 76 83 81 75 78 80 79 78 70 66 67 67 68 71 74 76 78
310 260 192 258 274 318 264 230 222 212 44 6 71 122 150 122 117 116 112 104 99 109 148 193 127 62 195 134 13 54 114 125 127 130 131 159 161 149 154 155 151 165 167 163 163 158 150 149 140 97 77 67 62 64 72 79 90 94 95 107 110 112 120 134 140 136 122 106 84 61 64 81 99 117 115 102 93 89 86 80 80 82 80 76 77 78 81 81 77 75 76 76 75 76 79 82 84
221 221 202 217 222 246 252 233 226 136 57 8 44 111 137 122 124 129 132 131 128 133 159 154 357 274 141 129 110 118 147 116 127 147 148 159 155 151 153 151 150 161 162 160 160 157 154 149 139 100 78 68 62 65 75 84 93 97 102 113 115 111 112 123 135 135 126 113 88 69 72 78 94 107 106 105 102 94 87 85 88 86 82 82 83 85 87 85 82 81 79 80 80 80 81 83 86
198 206 228 237 208 207 256 250 260 64 70 52 65 82 110 129 139 145 156 156 148 145 165 147 233 257 95 109 107 116 159 131 135 154 158 158 157 154 150 148 151 157 159 163 166 154 153 150 139 105 84 73 66 67 78 87 94 100 105 117 118 106 108 120 130 135 133 123 100 71 76 84 91 100 103 103 103 97 91 90 94 92 87 86 90 92 87 77 73 70 68 69 71 71 71 73 76
198 219 235 240 232 207 246 233 118 78 100 104 110 102 102 139 150 156 159 141 135 137 149 151 211 268 72 109 100 94 175 162 140 147 156 157 159 154 149 153 153 157 160 169 177 157 154 152 138 106 91 79 72 70 80 89 92 98 101 111 112 104 115 120 122 132 131 124 119 99 79 90 93 95 102 102 98 99 94 93 95 93 86 83 87 85 77 70 67 64 62 61 62 63 62 63 66
202 223 243 239 244 214 220 206 128 105 112 105 111 130 147 152 157 166 160 137 140 139 127 141 200 268 357 93 106 116 194 177 146 146 154 155 157 153 152 157 157 159 163 174 176 163 163 152 139 116 101 89 81 77 83 89 91 95 97 102 106 109 117 112 105 113 118 116 117 109 85 86 88 84 90 92 83 88 87 88 92 90 85 83 86 86 81 75 71 66 64 63 61 63 63 65 67
207 204 252 245 226 218 209 171 137 121 117 129 118 128 155 155 162 169 158 135 140 142 137 175 202 225 256 101 98 161 210 172 150 150 153 156 153 153 155 157 162 162 164 175 172 164 164 153 148 137 121 105 91 84 88 90 93 97 99 101 103 106 106 102 96 93 95 92 90 90 83 78 79 79 82 84 75 78 82 85 90 91 90 90 90 90 87 79 74 69 65 63 61 63 66 69 71
220 182 208 233 222 228 193 142 137 126 131 155 139 139 157 158 167 171 167 143 150 160 152 184 176 139 207 130 105 180 198 155 147 156 158 158 152 156 159 159 164 164 168 173 171 166 164 161 157 151 142 120 103 94 93 91 94 98 99 101 101 104 101 96 94 89 89 87 85 85 83 80 81 84 86 88 80 82 90 92 95 93 91 96 96 94 88 80 75 69 65 64 62 62 64 68 69
233 188 207 230 252 304 93 139 131 134 156 154 131 144 158 163 177 180 171 150 164 169 145 158 122 180 190 107 122 167 176 151 149 164 161 158 156 158 161 166 165 166 172 172 174 172 168 169 167 164 158 138 118 107 101 95 93 97 97 98 96 97 94 91 88 88 91 90 90 88 85 86 86 89 91 94 88 90 100 100 102 96 95 101 99 95 88 81 74 68 66 63 61 61 62 65 66
230 208 226 228 235 274 232 149 145 169 155 122 116 143 158 166 185 189 175 164 162 134 129 149 149 202 180 131 149 158 170 159 157 168 161 156 161 160 164 178 171 170 174 171 177 177 177 174 170 174 169 161 137 124 119 105 93 93 93 92 90 88 87 87 85 85 91 94 94 92 88 87 88 90 92 99 95 96 103 105 104 99 97 99 96 90 82 77 71 66 63 60 59 56 55 57 59
216 200 239 239 196 206 220 177 171 196 137 119 129 148 158 159 166 204 202 153 122 132 148 163 177 198 98 95 131 150 181 173 163 166 161 159 165 164 171 185 176 173 175 172 178 179 184 179 173 179 174 175 162 150 138 120 101 94 93 93 90 88 88 87 86 84 86 91 92 91 89 87 86 87 89 99 102 99 103 106 106 100 95 91 88 85 79 74 70 66 63 60 56 53 50 49 50
202 199 229 230 212 197 186 179 185 203 126 123 139 152 159 151 174 207 242 61 104 157 169 151 183 187 41 69 109 144 192 187 170 164 164 164 166 169 175 181 175 179 178 174 179 181 186 183 181 183 177 185 186 180 157 139 124 106 101 101 99 96 94 93 92 88 86 88 91 93 93 91 89 88 89 95 104 107 106 106 105 102 97 92 88 85 83 78 74 71 65 62 56 52 49 45 47
194 213 226 217 211 197 173 176 176 152 116 123 145 161 165 147 176 208 194 182 121 152 151 143 180 186 133 141 140 157 192 193 179 164 167 170 168 177 180 178 178 185 182 178 180 182 186 187 187 185 184 195 198 192 176 159 151 132 118 110 109 108 104 102 99 93 91 89 91 96 93 89 87 87 86 91 103 111 112 109 109 107 104 103 99 93 88 83 77 71 66 62 59 54 50 47 46
190 206 217 221 202 180 155 152 108 120 130 138 158 171 176 155 170 191 183 182 156 151 162 174 172 176 207 189 169 175 182 190 186 172 172 176 177 183 185 184 184 187 187 183 183 183 186 188 189 189 191 199 201 196 189 174 169 161 143 130 122 118 114 111 108 103 98 93 91 95 88 80 82 85 84 93 103 110 117 117 116 114 114 116 112 103 90 84 76 69 66 59 56 52 47 48 43
201 210 214 228 163 102 74 92 65 50 129 141 158 176 187 159 161 178 187 171 167 176 174 181 172 171 203 201 177 180 176 185 190 182 179 182 184 186 189 190 187 189 192 186 186 187 188 189 189 191 195 197 198 199 198 186 180 180 170 164 151 139 135 125 122 116 109 102 94 94 94 89 92 95 94 99 104 109 117 122 125 126 126 126 122 116 99 83 71 62 57 49 45 40 37 38 29
212 218 216 174 97 90 65 72 69 40 96 143 154 171 186 151 155 176 193 166 175 200 175 179 187 176 188 189 178 182 178 186 192 187 185 187 188 190 193 194 191 193 195 191 191 192 192 193 192 194 198 197 195 198 202 196 189 191 190 189 179 172 168 153 144 133 125 118 106 102 103 105 103 102 103 104 110 114 119 126 132 137 137 136 133 126 108 76 57 38 29 21 20 26 29 22 9
188 211 249 86 103 107 79 64 78 58 75 142 144 162 183 160 165 185 194 177 185 209 181 176 197 180 182 189 184 185 185 189 194 191 189 192 194 196 197 198 197 195 196 196 195 197 197 196 195 199 201 200 198 198 201 200 199 198 195 202 200 196 192 185 179 167 157 147 134 122 119 119 111 110 110 113 118 119 125 132 141 146 148 153 156 156 164 334 344 346 343 340 353 12 9 355 350
168 171 25 66 85 87 92 70 106 103 92 137 142 160 169 158 183 200 210 214 133 128 153 164 165 155 175 198 197 187 192 196 197 196 193 195 198 199 199 200 201 197 197 200 199 201 202 200 198 202 204 204 205 204 203 205 210 208 203 208 211 212 210 203 200 199 194 187 179 163 154 151 139 138 136 141 133 128 137 143 160 172 184 208 228 247 255 277 293 300 307 315 325 331 320 319 322
191 151 83 68 34 64 94 92 137 122 120 148 146 151 151 170 195 204 226 246 64 88 134 176 181 157 169 202 208 199 201 203 204 204 200 199 201 201 199 200 202 201 202 204 204 204 205 204 201 204 205 207 211 211 209 213 216 215 214 218 221 222 221 216 213 215 216 210 207 204 202 202 199 193 177 182 186 193 194 186 205 218 231 241 255 265 269 278 285 289 294 299 300 298 295 296 298
219 148 130 97 52 73 93 119 147 128 127 142 147 164 170 198 195 191 233 243 244 194 149 151 174 177 187 203 212 214 214 213 213 211 206 203 204 205 202 201 204 207 210 211 207 208 210 209 205 207 209 212 217 218 218 220 221 220 223 227 229 230 229 225 222 224 227 224 222 220 221 225 227 228 225 221 225 229 235 239 243 245 249 254 262 267 273 277 281 285 287 290 289 288 288 288 290
222 139 129 121 83 90 99 122 140 133 137 140 164 179 165 211 217 234 236 215 223 233 206 175 155 167 190 203 212 216 219 219 216 212 209 207 207 208 206 204 207 211 213 211 208 211 216 215 211 212 215 219 222 222 223 224 227 227 228 233 235 235 235 233 229 230 232 231 231 229 229 235 240 243 244 241 242 242 243 247 249 252 255 258 263 268 274 276 278 281 282 284 284 286 286 287 288
183 133 127 130 112 110 112 115 130 138 141 147 172 176 141 197 238 250 225 204 220 234 230 220 218 216 202 204 214 215 220 221 217 215 213 211 208 208 209 206 206 211 212 209 208 211 217 219 219 219 220 223 225 225 226 229 232 231 231 235 238 239 239 239 238 236 235 234 236 236 235 240 244 249 252 251 252 251 251 252 253 255 256 258 262 267 271 274 277 278 279 281 281 283 284 285 288
130 123 121 124 117 123 130 124 133 132 130 159 190 176 150 160 232 236 192 211 231 229 233 232 230 236 229 219 220 218 220 223 221 219 216 215 212 211 213 212 206 206 209 209 207 209 215 221 223 225 225 227 228 228 230 232 234 235 235 235 239 243 243 244 245 245 243 241 240 239 238 242 246 251 254 255 256 256 256 257 257 258 259 260 261 264 267 272 275 275 277 280 281 282 283 284 287
130 124 114 118 120 123 131 135 145 150 138 172 231 182 158 155 219 210 168 197 212 203 225 236 231 225 219 221 225 225 222 222 222 219 220 222 223 222 222 223 217 209 209 211 209 209 214 221 226 227 227 230 231 232 234 236 237 240 241 240 243 248 248 248 249 251 252 249 248 247 244 244 248 252 256 257 258 259 260 260 260 261 262 263 263 264 267 268 271 274 277 279 282 283 284 285 286
143 140 127 133 146 143 146 141 159 203 160 158 199 229 207 197 203 177 173 190 174 178 211 232 231 218 211 217 224 229 226 224 224 223 227 229 231 232 232 233 230 223 218 217 216 216 217 223 227 227 228 231 233 235 237 239 241 243 245 244 246 250 252 251 250 254 256 255 254 253 250 248 249 251 256 257 258 261 262 263 264 265 266 266 266 267 269 271 272 275 278 280 281 281 283 287 288
157 166 161 152 174 176 155 146 172 200 156 159 192 263 220 191 176 148 175 198 188 208 219 211 222 216 218 221 222 227 228 229 228 226 228 228 230 232 233 235 234 232 230 227 228 228 228 229 229 228 228 232 234 236 238 241 243 245 249 248 248 251 254 255 253 254 257 258 258 257 253 252 252 251 253 257 258 260 263 264 265 267 268 269 270 271 270 271 272 275 278 279 279 281 285 288 288
165 168 185 176 198 173 140 147 179 187 160 171 216 265 241 145 137 140 185 193 187 209 211 199 201 205 219 225 224 225 228 231 229 228 228 226 228 229 230 231 231 233 233 234 235 236 237 236 236 234 233 234 236 238 240 243 245 247 250 252 252 252 253 256 257 258 259 259 258 258 256 255 256 255 255 257 257 258 262 264 265 266 268 269 271 272 272 271 273 275 277 279 279 281 284 283 284
174 170 193 196 206 150 127 145 182 199 164 182 218 245 242 124 121 149 185 184 190 209 210 201 204 202 210 222 226 226 228 231 228 228 229 225 227 230 229 229 230 231 232 234 234 235 238 240 241 241 240 238 238 241 242 244 246 247 249 252 255 254 253 254 256 258 260 261 259 257 257 255 257 258 258 258 258 257 258 261 263 263 264 267 269 270 271 272 273 273 274 276 278 280 281 279 282
190 203 200 189 200 170 141 148 174 225 157 191 220 257 262 117 115 153 161 155 171 203 221 217 216 213 212 217 221 224 227 231 229 226 227 227 227 229 230 230 232 234 235 235 235 234 237 240 242 241 244 243 240 241 242 243 245 247 248 251 254 254 255 254 253 255 258 261 261 258 255 253 254 257 258 259 259 259 258 258 260 262 263 264 267 268 270 271 271 272 273 274 276 277 278 279 281
183 211 218 182 202 193 165 149 160 191 200 211 213 243 263 164 121 148 155 152 156 190 222 221 218 217 217 217 220 222 223 229 232 231 229 228 227 229 232 233 235 237 238 239 239 239 238 241 244 243 245 246 244 241 241 243 244 246 248 249 252 254 255 254 251 252 254 257 261 263 261 257 254 254 257 260 261 261 261 261 261 263 265 265 266 269 271 271 270 273 275 275 274 274 275 277 279
177 189 198 174 208 229 193 143 148 183 207 225 211 224 252 244 177 168 167 170 191 228 233 233 230 227 225 222 225 225 224 230 233 233 232 231 230 232 233 234 235 236 238 238 239 241 240 241 244 244 245 246 247 245 242 243 242 244 246 247 249 250 253 254 252 251 252 253 256 261 264 264 260 255 256 259 259 257 257 259 263 266 270 269 267 269 271 271 271 273 275 274 273 273 272 274 278
185 187 198 188 188 214 137 103 108 195 201 217 223 230 247 247 229 213 192 182 210 246 246 248 243 241 239 230 229 229 232 235 232 233 235 233 233 234 235 235 234 233 234 236 236 237 238 240 242 243 245 246 248 248 243 242 242 243 245 246 248 249 251 254 256 257 257 255 253 254 261 265 267 265 265 264 260 257 256 257 260 265 271 271 267 272 279 279 275 272 273 272 272 273 274 275 278
191 188 200 196 189 186 113 97 88 314 235 216 226 242 252 253 246 243 223 190 206 237 241 242 239 240 240 233 233 236 239 239 238 241 239 234 233 234 235 235 233 232 232 233 234 234 235 237 239 240 243 245 246 248 246 244 244 245 245 247 250 252 254 256 258 260 262 263 262 262 267 270 268 266 269 272 270 264 264 265 262 261 264 267 270 275 281 282 277 272 271 272 273 273 276 277 278
190 188 192 197 201 163 96 96 108 74 268 215 214 252 257 256 254 249 238 216 218 234 235 235 235 235 236 234 239 243 244 243 243 246 241 234 232 232 234 235 234 233 232 233 234 233 234 236 237 238 241 243 245 248 250 248 248 246 244 248 251 251 253 255 257 259 262 265 264 262 263 265 265 264 267 274 275 269 267 267 267 267 263 262 269 272 273 274 275 276 272 271 274 274 275 276 277
189 191 196 203 177 128 101 111 118 116 250 206 147 270 262 259 257 246 232 222 226 234 232 235 237 235 236 239 246 248 247 247 247 246 243 239 234 233 233 234 234 233 232 232 232 233 232 233 235 237 239 241 243 247 249 248 246 243 239 241 244 247 251 254 257 258 260 262 262 262 261 261 264 267 267 271 275 274 273 271 272 278 276 270 268 268 269 268 269 277 275 270 271 271 274 274 274
193 189 197 195 152 154 186 155 139 131 227 314 337 288 271 264 255 241 201 194 224 240 243 245 245 241 240 241 245 249 249 250 250 247 245 242 239 237 235 234 233 231 232 231 231 231 232 232 233 236 239 241 243 245 248 247 245 242 241 242 242 246 252 257 260 260 262 266 269 271 270 265 263 263 264 267 273 278 279 279 279 279 280 280 274 265 264 264 266 273 271 270 271 269 274 279 277
192 201 202 180 156 150 51 129 142 138 177 257 304 280 267 244 236 224 142 143 198 221 238 242 245 245 246 246 247 250 250 251 249 246 244 242 241 240 238 237 235 232 232 232 232 232 232 233 234 236 239 241 243 245 248 249 248 246 245 248 249 251 256 261 267 270 272 276 275 272 269 264 259 260 266 268 267 269 270 271 273 271 270 274 274 271 269 267 269 273 271 274 277 271 272 279 280
181 210 214 156 160 134 99 130 145 180 199 191 260 262 260 208 218 214 154 164 177 167 203 210 208 237 243 246 248 249 248 247 245 242 240 239 239 240 239 238 236 234 233 232 232 232 232 234 235 237 239 241 243 246 249 251 253 253 249 250 253 256 260 264 268 272 273 274 272 270 267 260 255 255 260 263 261 264 266 267 267 268 268 270 271 270 271 269 269 272 272 274 275 271 271 277 280
187 186 93 116 151 137 133 155 170 212 194 120 218 250 254 185 203 193 164 182 181 169 193 194 180 202 212 226 240 241 238 235 235 232 232 231 233 237 239 237 236 236 235 234 233 232 233 235 237 240 241 243 245 247 250 252 256 258 255 253 254 254 257 259 262 265 264 263 263 264 264 260 256 253 253 253 252 256 262 266 268 270 271 271 270 269 269 269 268 270 271 271 271 271 271 273 277
182 104 125 147 156 152 154 171 194 225 96 132 199 244 268 259 206 150 160 193 199 194 194 179 169 182 183 196 229 228 222 214 209 209 213 216 222 230 234 235 234 234 235 234 234 234 235 238 240 242 243 245 246 247 250 252 256 258 255 253 250 247 249 250 254 258 259 261 262 263 265 266 266 264 262 258 256 255 256 259 260 261 266 270 274 276 276 277 278 278 277 276 274 273 272 273 275
75 353 250 141 148 156 164 180 189 54 235 202 176 156 248 255 194 128 165 208 215 207 194 174 154 143 141 116 183 210 204 196 188 188 193 197 203 210 215 217 216 216 219 221 225 229 232 235 237 237 237 239 240 241 243 245 247 247 245 242 240 240 242 245 250 256 262 266 269 271 271 272 272 271 269 266 264 262 260 259 258 258 262 265 268 271 274 276 277 275 274 273 272 272 273 274 275
150 172 108 95 104 122 150 190 158 139 247 224 162 164 250 258 215 165 175 220 222 203 180 156 141 128 126 116 130 167 173 173 174 174 175 176 176 177 179 182 181 182 187 191 198 205 211 216 217 218 220 223 224 226 228 229 231 231 231 231 231 236 240 247 255 263 270 273 276 277 275 276 277 276 275 273 271 268 267 266 266 265 265 265 264 263 266 270 271 272 274 275 275 275 275 275 275
146 158 118 104 105 104 115 176 151 198 231 209 105 97 277 269 233 183 166 232 217 181 164 152 146 138 130 123 124 140 150 155 156 155 156 156 156 157 157 157 156 156 160 162 166 169 173 179 187 193 198 203 208 211 214 217 219 221 222 225 230 238 247 258 267 273 277 280 282 284 285 286 286 286 285 283 282 280 276 275 274 273 271 270 270 268 266 267 268 270 273 275 276 275 275 276 276
150 155 135 124 120 137 162 157 196 230 226 141 55 6 258 241 233 166 96 45 140 174 170 160 153 148 141 136 141 147 148 147 145 144 145 144 144 145 144 143 142 141 141 142 144 146 147 152 158 166 171 177 184 189 196 199 201 206 211 218 227 237 250 262 271 277 281 288 294 298 301 302 302 302 300 297 294 290 286 283 280 279 277 275 276 275 273 271 271 270 268 269 271 273 274 275 276
188 166 156 159 153 168 198 183 199 227 210 80 61 14 253 244 245 239 144 139 143 152 159 155 151 149 143 142 152 154 150 147 146 144 143 142 140 139 137 135 134 133 133 134 135 137 140 143 146 151 154 154 156 156 155 153 151 149 148 147 148 146 148 153 335 319 320 322 321 321 320 318 319 318 316 312 307 303 299 295 291 289 286 283 281 280 279 277 275 274 273 272 272 273 275 275 276
191 177 176 188 170 173 202 191 197 221 136 63 321 267 254 253 261 271 196 147 131 110 122 136 142 143 140 143 152 154 151 150 149 146 143 142 140 138 136 135 134 134 134 134 134 136 137 135 135 136 134 131 130 128 125 124 122 120 119 116 115 111 102 79 23 351 341 332 326 325 323 324 325 325 326 325 321 319 317 312 308 305 300 296 291 287 284 282 280 278 277 276 274 273 272 272 274
191 193 197 206 196 196 206 195 196 179 114 110 183 209 239 233 121 8 73 117 114 104 111 119 126 135 143 148 149 150 150 151 150 148 147 146 144 142 140 140 139 137 135 133 131 130 128 127 126 127 126 125 125 125 124 124 123 122 122 120 120 118 102 326 317 312 314 314 314 318 321 325 328 330 332 332 330 330 330 327 324 320 315 311 305 300 295 291 287 284 282 281 280 278 275 274 274
184 355 232 229 241 137 124 126 99 105 108 155 183 227 268 255 120 104 105 115 113 114 126 133 135 140 148 149 146 147 149 150 150 150 150 148 146 145 143 140 137 134 131 130 128 128 128 128 128 129 130 129 130 131 132 133 134 137 141 147 161 190 242 269 287 299 307 315 323 329 334 340 342 342 342 342 340 337 337 337 335 332 329 325 320 315 309 303 298 295 292 290 288 286 284 282 282
162 159 189 208 9 68 115 134 76 52 260 186 169 229 259 230 167 142 142 142 134 138 149 154 154 153 156 153 150 153 153 151 149 148 148 146 144 143 141 139 137 135 134 134 134 135 136 136 137 138 138 138 140 142 143 145 147 150 155 160 167 181 217 292 330 342 348 352 354 352 352 352 351 348 346 344 342 340 338 337 336 335 332 330 328 324 320 316 311 307 304 301 299 296 292 290 290
140 170 171 145 34 21 168 214 139 196 244 192 164 221 223 211 200 150 156 167 164 165 170 168 165 167 169 164 158 159 156 152 150 148 147 146 145 146 145 144 144 143 143 142 142 142 143 143 143 143 142 143 143 143 144 145 144 145 146 142 136 122 81 47 29 18 10 2 355 348 343 342 338 336 335 333 331 330 329 327 326 326 324 323 322 319 317 316 313 312 311 309 308 305 301 300 299
22 225 176 131 206 217 192 214 205 199 230 229 186 208 228 228 202 161 176 186 180 177 179 175 174 178 176 166 163 163 158 152 151 150 151 151 152 152 151 151 151 150 150 149 148 146 145 144 143 142 143 141 141 141 141 139 137 137 133 128 119 97 76 56 30 13 360 349 342 338 334 334 333 333 334 333 332 330 328 327 325 323 322 319 317 315 314 313 312 311 311 310 311 310 307 307 306
49 267 184 65 272 226 195 207 224 217 222 230 199 182 227 230 201 179 187 193 185 179 180 180 180 181 176 168 168 167 159 155 155 155 156 156 157 157 156 156 156 155 154 152 150 148 147 146 144 145 146 144 142 141 140 139 136 135 127 120 112 95 74 46 23 7 355 348 345 341 339 340 341 341 342 341 339 337 336 335 333 331 329 327 324 322 319 317 316 315 314 313 313 311 310 309 308
175 179 177 185 189 225 254 219 221 247 230 230 226 223 225 200 194 195 194 195 189 180 177 179 179 178 174 170 172 169 164 162 161 159 159 159 159 159 159 159 158 157 156 153 153 152 152 151 150 152 152 151 151 149 149 147 140 136 127 117 106 85 62 34 15 4 356 350 345 342 341 341 342 342 342 340 340 339 337 336 335 334 333 331 330 328 326 325 323 322 321 319 318 316 314 313 312
197 195 190 194 179 155 205 209 175 250 253 247 245 258 254 117 68 239 193 195 191 179 173 172 175 175 171 172 176 174 170 168 164 163 163 161 161 161 161 160 160 160 159 159 160 160 159 159 159 160 160 159 160 158 156 151 143 136 126 112 94 63 38 19 3 354 348 342 339 339 339 340 340 340 340 339 337 336 336 335 334 333 333 332 331 330 329 328 326 325 324 322 321 320 318 317 316